Temperature
11 11 10 10 11 11 11 11 11 11 11 11 11 10 10 10 10 11 11 11 11 10 10 10 10 10 10 10 10 10 10 10 10 10 10 10 10 10 10 10 10 10 10
10 10 10 10 10 10 10 10 10 10 10 10 10 10 10 10 10 10 10 10 10 10 10 10 10 10 10 9 9 9 9 9 9 9 9 9 9 9 9 9 9 9 9
9 10 10 10 10 10 10 10 10 9 10 10 10 9 9 9 9 9 9 9 9 9 10 9 9 9 9 9 9 9 9 9 9 9 9 9 9 9 9 9 9 9 9
9 9 9 9 9 9 9 9 9 9 9 9 9 9 9 9 9 9 9 9 9 9 9 9 9 9 9 9 9 8 8 8 8 8 8 8 8 8 8 8 8 8 8
8 8 8 8 8 8 8 8 8 8 8 8 8 8 8 8 8 8 8 8 8 8 8 8 8 8 8 8 8 8 8 8 8 8 8 8 8 8 8 8 8 8 8
8 8 8 8 8 8 8 8 8 8 8 8 8 8 8 8 8 8 8 8 8 8 8 8 8 8 8 8 8 8 8 7 7 7 7 7 7 7 7 7 7 7 7
8 8 7 7 7 7 7 7 7 7 7 7 7 7 7 7 7 7 7 7 7 7 7 7 7 7 7 7 7 7 7 7 7 7 7 7 7 7 7 7 7 7 7
7 7 7 7 7 7 7 7 7 7 7 7 6 6 6 6 7 7 7 7 7 6 6 6 6 6 6 6 7 7 7 6 6 6 6 6 6 6 6 6 6 6 7
6 6 6 6 6 6 6 6 6 6 6 6 6 6 6 6 5 6 6 6 6 6 6 6 6 6 6 5 6 6 6 6 6 6 6 6 6 5 6 6 6 6 6
6 6 6 6 6 6 6 6 6 6 6 5 5 5 5 5 5 5 5 5 5 5 5 5 5 5 5 5 5 5 5 5 5 5 5 5 5 5 5 5 5 5 5
6 6 6 5 5 5 5 5 5 5 5 5 5 5 4 4 4 4 4 4 4 4 4 4 5 5 5 4 4 4 5 5 4 4 4 4 4 4 5 5 5 5 5
5 5 5 5 5 5 5 5 5 5 4 4 4 4 4 4 4 4 3 3 3 4 4 4 4 4 4 4 4 4 4 4 4 4 4 4 4 4 4 4 4 4 4
4 4 4 4 4 4 4 4 4 4 4 4 3 3 3 3 3 3 3 3 3 3 3 3 3 3 4 3 3 3 4 3 3 3 3 3 3 3 3 3 3 4 4
4 4 4 4 4 4 4 4 3 3 3 3 3 3 3 3 3 3 2 2 2 2 3 3 3 3 3 3 3 3 3 3 3 3 3 3 3 3 3 3 3 3 3
3 3 3 3 3 3 3 3 3 3 3 3 3 3 2 2 3 2 2 2 2 2 2 2 2 3 2 2 2 2 2 2 2 2 2 2 2 2 2 2 2 2 2
3 3 3 3 3 3 2 2 2 2 2 2 2 2 2 2 2 2 2 1 1 1 1 1 2 2 2 2 2 2 2 2 2 2 2 2 2 2 1 1 2 2 2
2 2 2 2 2 2 2 2 2 2 2 2 2 1 1 1 1 1 1 1 1 1 0 1 1 1 1 1 1 1 1 1 1 1 1 1 1 1 1 1 1 1 1
2 2 2 2 2 2 2 1 1 1 1 1 1 1 1 1 1 1 1 1 0 0 0 0 0 1 1 1 0 0 0 0 0 1 1 1 1 1 1 1 1 1 1
2 2 1 1 1 1 1 1 1 1 1 1 1 1 0 0 0 0 0 -0 -0 -0 -0 -1 -0 -0 -0 -0 -0 -0 -0 -0 -0 -0 0 0 0 0 0 0 0 0 0
1 1 1 1 1 1 1 1 0 0 0 0 0 0 0 -0 -0 -0 -0 -1 -1 -1 -1 -1 -1 -1 -1 -1 -1 -1 -1 -1 -1 -0 -0 -0 -0 -0 -0 -0 -0 -0 0
1 1 1 0 0 0 0 0 -0 -0 -0 -0 -0 -0 -0 -0 -0 -1 -1 -1 -1 -1 -1 -1 -1 -1 -1 -1 -1 -1 -1 -1 -1 -1 -1 -1 -1 -1 -1 -1 -1 -1 -0
0 -0 -0 -0 -0 -0 -0 -0 -0 -1 -1 -1 -1 -1 -1 -1 -1 -1 -1 -1 -1 -2 -1 -1 -2 -2 -2 -2 -2 -2 -2 -2 -2 -2 -2 -2 -2 -2 -1 -1 -1 -1 -1
-0 -0 -1 -1 -1 -1 -1 -1 -1 -1 -1 -1 -1 -1 -1 -1 -1 -1 -1 -2 -2 -2 -2 -2 -2 -2 -2 -2 -2 -2 -2 -2 -2 -2 -2 -2 -2 -2 -2 -2 -2 -1 -1
-1 -1 -1 -1 -1 -1 -1 -1 -1 -1 -1 -2 -2 -2 -2 -2 -2 -2 -2 -2 -2 -2 -2 -2 -2 -2 -2 -2 -2 -2 -2 -3 -3 -3 -3 -3 -3 -2 -2 -2 -2 -2 -1
-1 -1 -2 -2 -2 -2 -2 -2 -2 -2 -2 -2 -2 -2 -2 -2 -2 -2 -2 -2 -2 -2 -2 -2 -2 -2 -2 -2 -2 -3 -3 -3 -3 -3 -3 -3 -3 -3 -3 -2 -2 -2 -2
-2 -2 -2 -2 -2 -2 -2 -2 -2 -2 -2 -2 -3 -3 -3 -2 -2 -3 -3 -3 -3 -3 -3 -2 -2 -2 -3 -3 -3 -3 -3 -3 -4 -4 -4 -4 -3 -4 -3 -3 -3 -3 -2
Wind_Speed
1 1 1 1 1 1 1 1 1 1 1 1 1 1 1 1 0 0 1 2 2 2 3 3 3 4 4 4 4 5 5 5 5 6 6 6 7 7 7 8 8 9 9
1 1 1 1 1 1 1 0 0 1 1 1 1 1 1 1 1 1 1 1 1 2 3 3 4 5 5 6 5 5 6 6 6 7 7 7 7 8 9 9 10 10 10
2 1 1 1 1 1 1 1 1 1 1 1 2 2 1 1 1 1 1 1 1 0 2 3 4 4 5 6 6 6 6 7 7 7 8 8 8 9 10 10 11 12 12
2 2 1 1 1 2 2 1 1 1 2 2 2 2 2 2 2 2 2 2 2 2 1 2 3 4 5 6 6 7 7 7 8 8 9 9 9 10 10 11 11 11 12
3 2 2 1 2 2 2 2 2 2 2 2 2 2 2 3 2 3 3 3 2 2 3 2 3 4 5 6 7 7 8 8 9 9 10 10 11 10 11 11 12 12 13
4 3 2 3 2 2 2 2 2 2 2 2 2 2 3 3 3 3 4 3 3 3 3 4 4 3 4 5 7 8 9 9 9 10 10 11 11 11 12 11 12 13 13
4 4 3 3 3 3 3 3 2 2 2 1 2 2 3 3 3 3 3 3 3 3 3 4 4 4 4 5 6 8 9 10 10 10 11 11 11 12 12 12 12 12 13
4 4 4 3 4 3 3 3 3 2 1 2 2 2 3 3 3 3 3 3 3 3 4 4 5 5 5 5 5 7 9 10 11 11 11 11 12 12 12 13 13 13 13
4 4 4 4 3 4 3 4 4 4 3 2 2 3 3 3 2 3 3 3 3 3 4 4 5 5 5 5 6 6 7 9 11 11 12 12 12 13 13 13 14 14 14
3 3 3 3 3 3 3 3 3 3 3 3 2 2 3 3 3 3 3 3 4 4 4 4 4 5 5 5 5 6 7 9 10 11 11 12 13 13 13 13 14 14 14
2 2 3 3 3 3 3 3 3 3 3 3 3 2 3 3 4 4 5 4 4 4 4 5 4 4 5 5 5 6 7 8 9 10 10 11 12 12 13 13 13 13 13
1 2 2 2 2 2 3 3 3 3 3 3 3 3 3 3 3 4 5 5 6 5 5 4 4 4 5 5 6 6 8 8 9 9 10 10 11 12 13 13 12 13 13
2 2 2 2 2 2 3 3 3 3 4 4 4 4 4 4 4 4 5 5 6 5 5 4 4 4 4 5 6 6 8 8 8 9 10 10 11 11 12 12 12 12 13
3 3 3 3 3 3 3 3 3 3 4 5 5 5 4 4 4 4 4 5 5 5 5 5 4 4 4 5 6 7 7 8 8 9 10 10 10 10 11 11 12 12 13
2 3 3 3 3 3 3 4 3 4 5 5 5 5 4 4 4 4 5 5 5 5 6 5 3 4 5 5 6 7 8 8 9 9 8 8 9 9 10 11 11 12 13
3 3 3 3 3 4 4 4 4 5 5 5 4 5 5 4 4 4 4 5 5 6 6 4 5 6 6 6 7 7 7 8 8 7 7 8 9 9 10 11 11 12 13
3 3 3 4 4 4 4 5 5 5 5 5 5 6 6 5 5 4 4 5 5 5 7 6 5 6 6 6 6 7 7 7 6 6 8 8 8 9 10 10 11 12 13
3 4 4 4 4 5 5 5 5 5 5 6 6 6 6 5 6 5 5 5 6 6 7 7 6 6 7 6 6 6 6 6 6 6 8 9 9 9 10 11 11 12 12
3 4 4 5 5 5 5 5 6 6 6 6 6 6 6 6 7 5 6 6 5 6 6 6 6 5 5 5 5 5 6 5 6 6 7 8 8 9 10 11 11 11 12
3 4 4 5 5 5 5 5 6 6 6 6 6 6 7 7 7 6 6 6 6 6 6 5 5 5 5 5 4 5 5 5 5 6 6 7 8 9 9 10 10 10 11
3 4 4 5 5 4 5 5 6 6 6 6 6 6 7 7 7 7 6 6 6 6 5 5 5 5 5 4 4 4 5 5 6 5 5 5 6 6 6 8 8 9 11
3 3 4 5 5 4 5 6 6 6 6 6 6 6 6 7 7 9 9 9 8 8 7 6 6 6 6 6 5 5 5 5 5 3 5 6 6 6 5 6 7 10 11
3 3 4 4 5 5 6 7 7 6 6 6 7 6 5 5 7 7 8 9 9 10 10 8 8 8 7 6 6 6 6 6 7 5 5 6 6 6 6 6 8 10 10
3 3 4 4 4 5 5 6 6 6 6 6 7 7 7 6 6 6 7 7 8 8 8 8 8 8 7 7 7 6 6 6 6 5 5 6 6 6 6 6 7 8 9
3 3 4 4 5 5 5 5 6 5 5 6 6 6 7 7 7 8 7 7 7 7 8 9 10 9 9 8 6 4 4 4 5 5 4 4 5 6 6 5 5 7 8
4 4 4 4 5 5 5 6 6 4 5 5 5 5 7 8 8 8 6 7 7 6 6 6 6 6 6 7 7 6 5 5 4 4 2 3 4 4 4 3 4 5 6
Wind_Direction
156 155 134 122 114 102 111 104 135 139 139 138 152 184 181 218 209 188 96 64 14 349 338 334 327 321 314 310 301 298 296 295 295 301 303 301 297 299 303 304 306 306 306
174 168 146 136 127 126 104 108 189 235 220 203 203 203 218 227 234 232 248 136 65 357 333 318 312 309 310 310 306 298 297 299 298 296 298 301 301 297 295 294 295 298 299
189 177 174 172 160 163 159 171 184 253 247 225 214 213 219 232 246 245 247 261 256 9 340 319 309 307 307 307 309 309 306 302 300 299 300 301 301 300 294 291 290 292 295
185 191 188 191 188 184 181 194 214 224 240 238 231 222 223 225 236 247 245 251 270 279 292 321 305 303 306 309 310 311 312 311 306 303 302 300 296 295 298 296 292 292 293
186 193 200 198 205 193 195 209 223 238 246 248 242 240 237 235 237 242 243 246 258 270 277 284 280 294 302 306 306 306 307 308 309 307 305 300 296 293 293 296 297 293 292
195 200 200 196 201 203 207 213 220 240 243 258 251 246 246 244 244 243 247 247 251 259 268 276 268 272 282 296 301 302 301 302 304 305 305 303 299 297 294 294 297 298 296
197 198 197 194 200 207 214 215 218 225 236 248 250 252 245 242 243 243 246 247 250 260 268 273 273 278 272 273 289 298 299 300 301 302 304 305 304 301 297 296 299 300 301
205 198 197 197 201 208 211 211 210 220 235 236 252 256 247 229 226 235 241 247 257 267 268 272 277 276 280 282 288 292 296 298 299 301 303 306 306 305 302 299 298 299 301
210 207 201 199 202 205 209 214 216 219 228 236 249 255 256 249 252 223 237 243 257 267 273 278 276 275 277 283 286 286 294 297 299 298 300 304 305 306 305 306 305 304 302
205 199 199 195 201 210 211 215 220 226 225 227 237 250 271 289 266 255 230 242 261 269 274 279 275 275 274 278 282 296 300 300 300 300 302 305 306 307 308 308 307 307 307
200 194 193 190 201 206 213 213 215 223 230 237 240 241 249 262 262 264 264 262 264 265 276 278 274 277 278 278 281 297 302 302 303 303 305 309 312 312 311 309 309 310 311
201 198 196 189 200 205 212 218 217 220 225 237 244 243 245 249 252 256 267 275 273 272 276 270 269 271 278 280 284 301 297 298 302 304 306 307 308 311 312 312 313 313 313
215 215 202 202 205 209 209 212 215 223 224 229 236 242 245 251 258 260 268 277 280 283 273 267 269 270 278 284 285 296 287 292 297 299 302 303 304 307 308 311 313 315 316
220 214 204 206 210 212 214 217 221 228 229 229 235 242 247 248 248 250 262 274 281 275 266 270 276 271 286 290 294 293 287 288 292 294 298 302 305 308 310 311 314 316 315
215 214 213 214 213 218 224 228 228 230 232 232 235 241 247 249 248 249 253 259 268 278 275 272 276 281 294 291 296 291 292 294 290 289 296 304 308 308 310 311 312 313 314
221 220 227 227 224 224 224 225 232 232 233 234 235 238 244 251 251 248 249 253 256 266 271 274 281 288 291 291 292 290 292 294 284 288 298 305 306 307 307 309 311 312 313
223 225 230 233 233 233 231 230 231 235 236 238 238 242 245 249 250 248 249 251 251 256 266 278 284 288 285 287 295 295 294 291 288 291 298 301 305 306 308 310 314 315 314
227 228 230 234 236 236 234 235 238 238 240 242 243 246 247 248 247 250 249 252 255 256 265 275 281 287 288 287 291 294 301 298 293 294 294 296 300 304 306 309 311 312 314
234 232 231 235 238 239 238 239 240 242 243 244 244 246 250 249 249 250 252 254 259 260 261 266 276 286 291 292 296 297 300 300 298 295 292 290 293 299 302 304 307 309 312
245 244 239 241 242 242 243 242 244 246 248 248 249 249 250 250 250 252 253 253 258 261 260 263 273 281 291 293 291 294 300 304 301 301 295 295 293 293 294 297 302 307 311
255 256 252 250 247 246 244 246 247 248 249 251 250 248 247 247 249 252 254 255 255 257 258 262 269 276 281 285 284 288 290 301 299 296 301 301 300 299 300 297 299 307 311
254 254 253 257 259 257 250 250 251 251 250 251 253 252 249 242 242 245 250 256 256 255 255 255 261 266 271 275 280 279 286 294 296 297 303 303 302 299 304 304 307 311 312
260 262 262 263 266 267 261 256 253 254 253 253 254 254 252 248 246 248 250 252 254 253 252 256 256 260 264 265 268 272 274 276 282 286 298 294 298 299 305 304 304 310 313
264 266 266 266 268 270 266 259 260 253 255 255 254 252 250 251 247 248 250 253 257 257 259 258 258 258 259 260 257 261 270 280 283 276 278 285 296 300 304 303 303 311 314
266 268 266 264 266 270 266 263 264 258 256 257 255 253 249 250 247 249 251 254 258 262 260 258 260 261 262 257 256 258 258 265 282 284 281 276 290 302 298 294 299 306 310
264 269 264 263 265 270 272 269 263 252 256 260 260 254 245 247 252 250 252 254 256 262 270 265 259 257 253 242 238 241 245 251 275 279 263 268 284 305 299 290 300 310 310
Height
1522 1522 1523 1523 1524 1525 1526 1526 1527 1527 1527 1527 1527 1528 1528 1528 1528 1529 1528 1528 1528 1528 1528 1528 1528 1527 1527 1527 1526 1526 1525 1525 1524 1523 1523 1522 1521 1521 1520 1519 1518 1517 1516
1519 1520 1520 1521 1522 1522 1523 1523 1524 1525 1525 1525 1525 1525 1526 1526 1526 1526 1526 1526 1526 1526 1525 1525 1525 1525 1524 1524 1523 1523 1522 1522 1521 1521 1520 1519 1519 1518 1517 1516 1515 1514 1513
1517 1517 1518 1518 1519 1520 1520 1521 1522 1522 1522 1523 1523 1523 1523 1523 1523 1524 1524 1523 1523 1523 1522 1522 1522 1522 1521 1521 1521 1520 1519 1519 1518 1518 1517 1516 1516 1515 1514 1513 1512 1511 1510
1514 1515 1515 1516 1517 1517 1518 1518 1519 1519 1520 1520 1520 1520 1520 1521 1521 1521 1521 1520 1520 1520 1519 1519 1519 1518 1518 1518 1517 1517 1516 1516 1515 1514 1514 1513 1512 1512 1511 1510 1509 1507 1506
1512 1512 1513 1513 1514 1515 1515 1516 1516 1517 1517 1517 1517 1517 1517 1517 1518 1517 1517 1517 1517 1516 1516 1516 1515 1515 1515 1514 1514 1513 1513 1512 1512 1511 1510 1509 1509 1508 1507 1506 1505 1504 1502
1509 1509 1510 1510 1511 1511 1512 1513 1513 1514 1514 1515 1514 1514 1514 1514 1514 1514 1514 1514 1514 1513 1513 1512 1512 1511 1511 1511 1510 1510 1509 1509 1508 1507 1506 1506 1505 1504 1503 1502 1501 1500 1498
1505 1506 1507 1507 1508 1508 1509 1510 1510 1511 1511 1512 1512 1512 1511 1511 1511 1511 1511 1511 1510 1510 1509 1509 1508 1508 1507 1506 1506 1505 1505 1505 1504 1503 1502 1501 1501 1500 1499 1498 1496 1495 1494
1502 1503 1503 1504 1505 1506 1506 1507 1507 1508 1508 1508 1509 1509 1510 1510 1507 1507 1507 1507 1507 1506 1506 1505 1505 1504 1503 1502 1502 1501 1501 1500 1500 1499 1498 1497 1496 1496 1495 1493 1492 1491 1489
1499 1499 1500 1500 1501 1502 1503 1503 1504 1504 1505 1505 1506 1507 1507 1506 1505 1504 1504 1504 1503 1503 1502 1502 1501 1500 1499 1498 1498 1497 1496 1496 1495 1494 1494 1493 1492 1491 1490 1489 1488 1486 1484
1495 1495 1496 1497 1498 1499 1499 1500 1501 1501 1502 1502 1502 1502 1503 1503 1504 1502 1501 1501 1500 1500 1499 1498 1497 1496 1495 1494 1493 1493 1492 1491 1490 1490 1489 1488 1487 1486 1485 1484 1483 1481 1480
1492 1492 1493 1493 1494 1495 1496 1496 1497 1498 1498 1498 1499 1499 1499 1500 1500 1500 1498 1498 1497 1496 1495 1494 1493 1493 1491 1491 1490 1489 1487 1487 1486 1485 1484 1483 1482 1481 1480 1479 1478 1476 1475
1488 1488 1489 1490 1491 1491 1492 1493 1493 1494 1494 1495 1495 1495 1496 1496 1496 1496 1495 1494 1493 1492 1491 1490 1489 1488 1487 1487 1485 1484 1483 1482 1481 1480 1479 1478 1477 1476 1475 1474 1472 1471 1470
1485 1485 1485 1486 1487 1488 1488 1489 1490 1490 1491 1491 1492 1492 1492 1492 1492 1493 1492 1490 1489 1488 1487 1486 1485 1484 1483 1482 1481 1480 1479 1477 1476 1475 1474 1473 1472 1471 1470 1469 1467 1466 1464
1482 1482 1482 1483 1483 1484 1485 1485 1486 1486 1487 1488 1488 1488 1488 1488 1488 1488 1488 1488 1486 1484 1483 1483 1481 1480 1479 1478 1477 1476 1474 1473 1472 1471 1470 1469 1467 1466 1465 1464 1462 1461 1459
1479 1479 1479 1480 1480 1481 1481 1482 1482 1483 1483 1483 1483 1484 1484 1484 1484 1484 1484 1484 1484 1482 1480 1479 1478 1476 1475 1474 1472 1471 1470 1469 1468 1467 1466 1464 1463 1462 1461 1460 1458 1456 1455
1475 1476 1476 1476 1477 1477 1478 1478 1478 1479 1479 1479 1479 1480 1480 1480 1480 1480 1480 1480 1479 1479 1477 1474 1473 1472 1471 1469 1468 1467 1466 1465 1464 1463 1462 1460 1459 1458 1456 1455 1453 1452 1450
1472 1472 1473 1473 1474 1474 1474 1474 1475 1475 1475 1475 1475 1476 1476 1476 1476 1475 1475 1475 1475 1474 1472 1470 1469 1468 1467 1466 1464 1463 1462 1461 1460 1459 1458 1456 1455 1453 1452 1451 1449 1447 1445
1468 1469 1470 1470 1470 1470 1471 1471 1471 1471 1471 1471 1471 1471 1471 1472 1471 1471 1471 1470 1470 1469 1469 1466 1465 1464 1463 1462 1461 1460 1458 1457 1456 1455 1454 1452 1451 1449 1448 1446 1444 1443 1441
1465 1466 1466 1466 1466 1466 1467 1467 1467 1467 1467 1467 1467 1467 1467 1467 1467 1466 1466 1466 1465 1465 1464 1463 1461 1460 1459 1458 1457 1456 1455 1454 1453 1451 1450 1449 1447 1446 1444 1442 1440 1439 1437
1462 1462 1462 1462 1462 1462 1462 1462 1463 1462 1462 1462 1462 1462 1462 1462 1462 1462 1461 1461 1461 1461 1460 1459 1458 1456 1455 1454 1453 1452 1451 1450 1449 1448 1446 1445 1443 1442 1440 1438 1437 1435 1433
1459 1458 1458 1458 1458 1458 1458 1458 1458 1458 1457 1457 1457 1457 1457 1457 1457 1457 1457 1457 1457 1456 1455 1455 1454 1453 1452 1451 1450 1449 1448 1446 1445 1444 1443 1441 1440 1438 1437 1435 1433 1431 1430
1455 1455 1455 1454 1454 1454 1453 1454 1454 1453 1453 1452 1452 1452 1452 1452 1452 1452 1452 1452 1452 1452 1451 1451 1450 1449 1448 1448 1447 1446 1445 1443 1441 1441 1440 1438 1437 1435 1433 1432 1430 1428 1426
1451 1451 1451 1450 1450 1449 1449 1449 1449 1448 1448 1448 1447 1447 1447 1447 1447 1447 1447 1447 1447 1447 1447 1447 1446 1445 1445 1444 1443 1442 1441 1440 1438 1437 1436 1434 1434 1432 1430 1428 1426 1425 1423
1448 1447 1447 1446 1446 1445 1445 1445 1444 1444 1443 1443 1443 1443 1443 1443 1443 1443 1442 1442 1442 1442 1442 1442 1441 1441 1440 1440 1439 1439 1437 1436 1435 1434 1433 1431 1430 1428 1427 1425 1423 1421 1419
1444 1444 1443 1442 1442 1442 1442 1441 1441 1440 1440 1439 1439 1439 1438 1438 1439 1439 1438 1438 1438 1438 1438 1437 1437 1436 1436 1435 1435 1434 1433 1432 1431 1430 1430 1429 1427 1425 1423 1421 1420 1418 1416
1441 1440 1440 1439 1439 1438 1438 1437 1437 1437 1436 1435 1435 1435 1434 1434 1434 1434 1434 1434 1434 1433 1433 1432 1432 1431 1431 1430 1430 1430 1430 1429 1428 1427 1426 1426 1424 1422 1420 1418 1417 1415 1413